Location: Boiro
(42.6475°N, 8.8834°W)
Time: 18:11:00
(UTC+01:00)

Transit 2A Rocket - Pass Details

Date: 09 December 2021
Orbit: 585 x 917 km, 66.7° (Epoch: 26 January)

Event Time Altitude Azimuth Distance (km) Brightness Sun altitude
Rises 08:52:20 0° 236° (WSW) 3,348 8.1 -1.1°
Reaches altitude 10° 08:54:54 10° 245° (WSW) 2,465 7.3 -0.7°
Maximum altitude 09:00:11 36° 312° (NW) 1,363 5.9 0.1°
Drops below altitude 10° 09:05:46 10° 18° (NNE) 2,605 7.6 1.0°
Sets 09:08:34 0° 27° (NNE) 3,562 8.4 1.4°
